| time (UTC) | temp C | wind direction | speed KPH | gust KPH | rain 1hr cm | rain 24hr cm | rain mn cm | humidity % | barometer mb |
| 20260903143101 | 30 | 210 | 1.6 | 6.4 | 0.00 | 0.00 | 0.00 | 79 | 1018.5 |
| 20260903141556 | 28 | 200 | 1.6 | 8.0 | 0.00 | 0.00 | 0.00 | 81 | 1018.5 |
| 20260903140059 | 28 | 238 | 3.2 | 6.4 | 0.00 | 0.00 | 0.00 | 83 | 1018.6 |
| 20260903134553 | 27 | 255 | 4.8 | 11.3 | 0.00 | 0.00 | 0.00 | 84 | 1018.7 |
| 20260903133048 | 26 | 241 | 4.8 | 9.7 | 0.00 | 0.00 | 0.00 | 88 | 1018.7 |
| 20260903131547 | 26 | 223 | 3.2 | 9.7 | 0.00 | 0.00 | 0.00 | 89 | 1018.7 |
| 20260903130048 | 25 | 194 | 3.2 | 6.4 | 0.00 | 0.00 | 0.00 | 90 | 1018.7 |
| 20260903124545 | 24 | 144 | 1.6 | 3.2 | 0.00 | 0.00 | 0.00 | 91 | 1018.6 |
| 20260903123044 | 24 | 144 | 0.0 | 3.2 | 0.00 | 0.00 | 0.00 | 91 | 1018.5 |
| 20260903121543 | 23 | 144 | 1.6 | 4.8 | 0.00 | 0.00 | 0.00 | 91 | 1018.5 |
| 20260903120048 | 23 | 144 | 0.0 | 0.0 | 0.00 | 0.00 | 0.00 | 91 | 1018.3 |
| 20260903114600 | 23 | 144 | 1.6 | 3.2 | 0.00 | 0.00 | 0.00 | 90 | 1018.2 |
| 20260903113040 | 23 | 144 | 0.0 | 0.0 | 0.00 | 0.00 | 0.00 | 90 | 1018.2 |
| 20260903111538 | 23 | 144 | 0.0 | 3.2 | 0.00 | 0.00 | 0.00 | 90 | 1018.1 |
| 20260903110037 | 24 | 144 | 0.0 | 1.6 | 0.00 | 0.00 | 0.00 | 90 | 1018.0 |
| 20260903104536 | 24 | 144 | 0.0 | 1.6 | 0.00 | 0.00 | 0.00 | 89 | 1017.8 |
| 20260903103034 | 24 | 144 | 0.0 | 3.2 | 0.00 | 0.00 | 0.00 | 89 | 1017.8 |
| 20260903101531 | 24 | 144 | 0.0 | 3.2 | 0.00 | 0.00 | 0.00 | 89 | 1017.6 |
| 20260903100033 | 24 | 142 | 1.6 | 3.2 | 0.00 | 0.00 | 0.00 | 89 | 1017.6 |
| 20260903094537 | 24 | 140 | 1.6 | 4.8 | 0.00 | 0.00 | 0.00 | 89 | 1017.5 |
| 20260903093042 | 25 | 140 | 0.0 | 3.2 | 0.00 | 0.00 | 0.00 | 88 | 1017.6 |
| 20260903091527 | 25 | 140 | 1.6 | 3.2 | 0.00 | 0.00 | 0.00 | 87 | 1017.5 |
| 20260903090028 | 25 | 139 | 1.6 | 4.8 | 0.00 | 0.00 | 0.00 | 86 | 1017.4 |
| 20260903084531 | 25 | 140 | 3.2 | 6.4 | 0.00 | 0.00 | 0.00 | 86 | 1017.3 |
| 20260903083024 | 25 | 145 | 0.0 | 3.2 | 0.00 | 0.00 | 0.00 | 87 | 1017.4 |
| 20260903081523 | 25 | 143 | 1.6 | 4.8 | 0.00 | 0.00 | 0.00 | 87 | 1017.2 |
| 20260903080023 | 25 | 138 | 0.0 | 3.2 | 0.00 | 0.00 | 0.00 | 88 | 1017.1 |
| 20260903074522 | 25 | 138 | 1.6 | 3.2 | 0.00 | 0.00 | 0.00 | 88 | 1017.2 |
| 20260903073122 | 25 | 138 | 0.0 | 1.6 | 0.00 | 0.00 | 0.00 | 87 | 1017.2 |
| 20260903071520 | 25 | 137 | 0.0 | 4.8 | 0.00 | 0.00 | 0.00 | 87 | 1017.2 |
| 20260903070021 | 25 | 136 | 1.6 | 4.8 | 0.00 | 0.00 | 0.00 | 87 | 1017.3 |
| 20260903064515 | 26 | 129 | 3.2 | 6.4 | 0.00 | 0.00 | 0.00 | 86 | 1017.2 |
| 20260903063011 | 26 | 115 | 0.0 | 3.2 | 0.00 | 0.00 | 0.00 | 85 | 1017.4 |
| 20260903061511 | 26 | 115 | 1.6 | 4.8 | 0.00 | 0.00 | 0.00 | 85 | 1017.5 |
| 20260903060013 | 26 | 117 | 3.2 | 6.4 | 0.00 | 0.00 | 0.00 | 84 | 1017.4 |
| 20260903054510 | 26 | 118 | 3.2 | 4.8 | 0.00 | 0.00 | 0.00 | 84 | 1017.4 |
| 20260903053004 | 26 | 120 | 3.2 | 6.4 | 0.00 | 0.00 | 0.00 | 83 | 1017.6 |
| 20260903051503 | 27 | 115 | 3.2 | 6.4 | 0.00 | 0.00 | 0.00 | 82 | 1017.6 |
| 20260903050059 | 27 | 115 | 4.8 | 6.4 | 0.00 | 0.00 | 0.00 | 80 | 1017.5 |
| 20260903044602 | 27 | 119 | 3.2 | 4.8 | 0.00 | 0.00 | 0.00 | 79 | 1017.4 |
| 20260903043057 | 27 | 145 | 1.6 | 4.8 | 0.00 | 0.00 | 0.00 | 79 | 1017.5 |
| 20260903041556 | 27 | 145 | 0.0 | 1.6 | 0.00 | 0.00 | 0.00 | 79 | 1017.5 |
| 20260903040057 | 28 | 145 | 0.0 | 0.0 | 0.00 | 0.00 | 0.00 | 77 | 1017.5 |
| 20260903034559 | 28 | 145 | 0.0 | 0.0 | 0.00 | 0.00 | 0.00 | 75 | 1017.5 |
| 20260903033055 | 29 | 145 | 0.0 | 3.2 | 0.00 | 0.00 | 0.00 | 74 | 1017.5 |
| 20260903031555 | 29 | 145 | 1.6 | 4.8 | 0.00 | 0.00 | 0.00 | 74 | 1017.5 |
| 20260903030055 | 29 | 145 | 1.6 | 4.8 | 0.00 | 0.00 | 0.00 | 74 | 1017.6 |
| 20260903024554 | 29 | 145 | 1.6 | 4.8 | 0.00 | 0.00 | 0.00 | 74 | 1017.5 |
| 20260903023055 | 30 | 145 | 1.6 | 4.8 | 0.00 | 0.00 | 0.00 | 73 | 1017.5 |
| 20260903021554 | 30 | 144 | 1.6 | 4.8 | 0.00 | 0.00 | 0.00 | 72 | 1017.4 |
| 20260903020056 | 30 | 141 | 0.0 | 3.2 | 0.00 | 0.00 | 0.00 | 72 | 1017.3 |
| 20260903014607 | 30 | 140 | 1.6 | 4.8 | 0.00 | 0.00 | 0.00 | 72 | 1017.2 |
| 20260903013052 | 30 | 139 | 1.6 | 6.4 | 0.00 | 0.00 | 0.00 | 71 | 1017.1 |
| 20260903011550 | 31 | 138 | 0.0 | 6.4 | 0.00 | 0.00 | 0.00 | 70 | 1016.8 |
| 20260903010049 | 31 | 132 | 4.8 | 8.0 | 0.00 | 0.00 | 0.00 | 69 | 1016.5 |
| 20260903004549 | 31 | 134 | 1.6 | 3.2 | 0.00 | 0.00 | 0.00 | 67 | 1016.6 |
| 20260903003048 | 32 | 129 | 6.4 | 8.0 | 0.00 | 0.00 | 0.00 | 65 | 1016.7 |
| 20260903001547 | 33 | 121 | 4.8 | 6.4 | 0.00 | 0.00 | 0.00 | 63 | 1016.7 |
| 20260903000048 | 34 | 139 | 3.2 | 6.4 | 0.00 | 0.00 | 0.00 | 60 | 1016.6 |
| 20260902234548 | 35 | 161 | 1.6 | 4.8 | 0.00 | 0.00 | 0.00 | 57 | 1016.7 |
| 20260902233044 | 35 | 169 | 1.6 | 6.4 | 0.00 | 0.00 | 0.00 | 57 | 1016.5 |
| 20260902231543 | 36 | 173 | 4.8 | 8.0 | 0.00 | 0.00 | 0.00 | 55 | 1016.7 |
| 20260902230043 | 36 | 155 | 4.8 | 9.7 | 0.00 | 0.00 | 0.00 | 54 | 1016.8 |
| 20260902224546 | 36 | 162 | 4.8 | 9.7 | 0.00 | 0.00 | 0.00 | 54 | 1016.8 |
| 20260902223038 | 36 | 163 | 3.2 | 9.7 | 0.00 | 0.00 | 0.00 | 55 | 1016.9 |
| 20260902221535 | 36 | 193 | 8.0 | 14.5 | 0.00 | 0.00 | 0.00 | 54 | 1016.8 |
| 20260902220033 | 36 | 122 | 6.4 | 14.5 | 0.00 | 0.00 | 0.00 | 53 | 1017.0 |
| 20260902214537 | 36 | 148 | 6.4 | 12.9 | 0.00 | 0.00 | 0.00 | 55 | 1017.0 |
| 20260902213032 | 36 | 125 | 6.4 | 16.1 | 0.00 | 0.00 | 0.00 | 52 | 1017.1 |
| 20260902211529 | 36 | 136 | 4.8 | 12.9 | 0.00 | 0.00 | 0.00 | 52 | 1017.2 |
| 20260902210043 | 36 | 165 | 9.7 | 17.7 | 0.00 | 0.00 | 0.00 | 51 | 1017.3 |
| 20260902204526 | 36 | 167 | 9.7 | 19.3 | 0.00 | 0.00 | 0.00 | 52 | 1017.5 |
| 20260902203023 | 36 | 152 | 6.4 | 17.7 | 0.00 | 0.00 | 0.00 | 51 | 1017.6 |
| 20260902201522 | 36 | 217 | 9.7 | 20.9 | 0.00 | 0.00 | 0.00 | 50 | 1017.8 |
| 20260902200031 | 36 | 171 | 6.4 | 17.7 | 0.00 | 0.00 | 0.00 | 51 | 1017.9 |
| 20260902194525 | 36 | 181 | 12.9 | 22.5 | 0.00 | 0.00 | 0.00 | 50 | 1018.1 |
| 20260902193018 | 36 | 163 | 11.3 | 22.5 | 0.00 | 0.00 | 0.00 | 49 | 1018.3 |
| 20260902191518 | 36 | 152 | 4.8 | 14.5 | 0.00 | 0.00 | 0.00 | 52 | 1018.5 |
| 20260902190014 | 36 | 213 | 6.4 | 20.9 | 0.00 | 0.00 | 0.00 | 54 | 1018.7 |
| 20260902184511 | 35 | 170 | 9.7 | 16.1 | 0.00 | 0.00 | 0.00 | 55 | 1018.8 |
| 20260902183009 | 35 | 234 | 6.4 | 17.7 | 0.00 | 0.00 | 0.00 | 56 | 1018.8 |
| 20260902181607 | 35 | 219 | 6.4 | 14.5 | 0.00 | 0.00 | 0.00 | 57 | 1018.8 |
| 20260902180006 | 35 | 206 | 8.0 | 16.1 | 0.00 | 0.00 | 0.00 | 58 | 1018.9 |
| 20260902174504 | 35 | 196 | 9.7 | 22.5 | 0.00 | 0.00 | 0.00 | 58 | 1019.3 |
| 20260902173004 | 35 | 234 | 9.7 | 16.1 | 0.00 | 0.00 | 0.00 | 59 | 1019.5 |
| 20260902171502 | 35 | 182 | 4.8 | 11.3 | 0.00 | 0.00 | 0.00 | 60 | 1019.6 |
| 20260902170059 | 34 | 236 | 4.8 | 14.5 | 0.00 | 0.00 | 0.00 | 60 | 1019.9 |
| 20260902164557 | 34 | 195 | 8.0 | 12.9 | 0.00 | 0.00 | 0.00 | 64 | 1020.0 |
| 20260902163058 | 33 | 178 | 4.8 | 12.9 | 0.00 | 0.00 | 0.00 | 66 | 1020.1 |
| 20260902161548 | 33 | 212 | 6.4 | 12.9 | 0.00 | 0.00 | 0.00 | 68 | 1020.2 |
| 20260902160044 | 32 | 223 | 6.4 | 9.7 | 0.00 | 0.00 | 0.00 | 69 | 1020.3 |
| 20260902154541 | 32 | 149 | 1.6 | 8.0 | 0.00 | 0.00 | 0.00 | 72 | 1020.4 |
| 20260902153039 | 31 | 198 | 6.4 | 11.3 | 0.00 | 0.00 | 0.00 | 75 | 1020.5 |
| 20260902151534 | 31 | 218 | 4.8 | 9.7 | 0.00 | 0.00 | 0.00 | 75 | 1020.6 |
| 20260902150030 | 30 | 227 | 4.8 | 11.3 | 0.00 | 0.00 | 0.00 | 76 | 1020.6 |
| 20260902144534 | 30 | 182 | 4.8 | 9.7 | 0.00 | 0.00 | 0.00 | 78 | 1020.6 |